Volver al catálogo

ONEWEB-0461

ActivoComunicacionesPO
NORAD 51649·PAYLOAD·🇬🇧 United Kingdom

Lanzado Feb 10, 2022 desde Guiana Space Centre

Loading…

Próximos Pases (próximas 24 horas)

TLE

ActualizadoSource: CelesTrak SupGP

Época: Sep 14, 2026, 18:45 UTC

1 51649C 22012AD  26257.78140463 -.00001002  00000+0 -25833-2 0  2571
2 51649  87.9207 348.0696 0001782 105.2782   6.5852 13.17654319    16

Sigue ONEWEB-0461 en tiempo real con AllMySat

Download on the App Store